Weather in Urzuf

Ukraine / Donetsk Region     46°54′55″N   37°05′55″E
temp.,
°C
wind,
m/s
gust,
m/s
humid.,
%
clouds,
%
prec.,
mm/h
press.,
hPa
HPBL,
m
23 january, sat
sat2323:00+4ssw51391100 0.0 1022303
02:00+4ssw41290100 0.0 1021326
05:00+4ssw369199 0.3 1021124
08:00+4s4109199 0.3 1021259
11:00+5s5128998 0.0 1020337
14:00+6s5118698 0.0 1019439
17:00+5sse4119096 0.0 1019252
20:00+5s4119098 0.0 1019300
24 january, sun
sun2423:00+5sse379399 0.0 1019162
02:00+4se4691100 0.0 1018122
05:00+3se4686100 0.0 101799
08:00+3ese4780100 0.0 1017149
11:00+5ese6967100 0.0 1016346
14:00+5ese61067100 0.0 1015403
17:00+4ese51077100 0.0 1015248
20:00+3ese4883100 0.0 1015155
25 january, mon
mon2523:00+3ese4688100 0.0 101597
02:00+4se3494100 0.1 101580
05:00+5se4695100 2.4 1014165
08:00+5se4987100 2.4 1014245
11:00+8se5975100 0.0 1014383
14:00+6ese5778100 0.0 1012298
17:00+5ese61282100 0.0 1011301
20:00+6se71567100 0.0 1010443
26 january, tue
tue2623:00+6se81575100 0.2 1008410
02:00+7sse91883100 1.8 1008575
05:00+7s6168191 0.0 1007436
08:00+7s8178895 0.0 1007575
11:00+7s81691100 4.7 1006756
14:00+7sw91573100 7.8 10081114
17:00+4wsw71470100 0.0 1011704
20:00+3wsw61469100 0.0 1013513
27 january, wed
wed2723:00+1wsw3474100 0.0 101570
02:00+1s1273100 0.0 101522
05:00+2ssw1179100 0.0 101422
08:00+2se2282100 0.0 101533
11:00+4se2280100 0.0 1015461
14:00+3e3388100 0.1 1013315
17:00+2ene3590100 0.0 1012244
20:00+1ne61193100 0.3 1011592